Regional Weather Roundup
Issued by NWS

Home | Current Version | Previous Version | Graphics & Text | Print | Product List | Glossary On
Versions: 1 2 3 4 5 6 7 8 9 10 11 12 13 14 15 16 17 18 19 20 21 22 23 24 25 26 27 28 29 30 31 32 33 34 35 36 37 38 39 40 41 42 43 44 45 46 47 48 49 50
000
ASUS43 KMPX 201610
RWRMN
WEATHER ROUNDUP FOR MINNESOTA
NATIONAL WEATHER SERVICE TWIN CITIES/CHANHASSEN MN
1100 AM CDT SAT SEP 20 2014


NOTE: "FAIR" INDICATES FEW OR NO CLOUDS BELOW 12,000 FEET WITH NO
SIGNIFICANT WEATHER AND/OR OBSTRUCTIONS TO VISIBILITY. N/A MEANS
CURRENT SKY AND/OR WEATHER CONDITIONS ARE NOT AVAILABLE.

MNZ060>063-068>070-201700-
   Twin Cities Metro

CITY           SKY/WX    TMP DP  RH WIND       PRES   REMARKS
TWIN CITIES    MOSUNNY   70  58  65 W13       29.81S
ST PAUL        SUNNY     69  58  67 W13       29.80R
CRYSTAL        SUNNY     70  57  63 W13       29.80R
BLAINE         MOSUNNY   72  61  68 W13G21    29.81R
LAKEVILLE      MOSUNNY   68  59  73 W10       29.81S
EDEN PRAIRIE   SUNNY     70  59  68 W8        29.81R
SOUTH ST PAUL  MOSUNNY   70  57  63 W8        29.80S
LAKE ELMO      FAIR      68  59  73 NW10      29.81S
$$
MNZ001>005-007-008-013>017-022>024-027-028-201700-
   Northwest Minnesota

CITY           SKY/WX    TMP DP  RH WIND       PRES   REMARKS
BEMIDJI        CLOUDY    58  51  80 NW13      29.80R
HALLOCK        CLOUDY    59  55  88 S8        29.74F
ROSEAU         MOSUNNY   55  48  76 SW8       29.77F
WARROAD        MOSUNNY   54  48  82 W6        29.77S
THIEF RVR FALL CLOUDY    57  54  88 SW5       29.78F
CROOKSTON      MOSUNNY   61  54  77 S6        29.79F
FOSSTON        CLOUDY    59  52  77 CALM      29.81S
DETROIT LAKES  MOSUNNY   61  54  77 W6        29.83F
MOORHEAD       SUNNY     64  57  77 SW7       29.82F
PARK RAPIDS    CLOUDY    59  54  83 W12       29.81S
MAHNOMEN       CLOUDY    59  53  80 W7        29.81F
$$
MNZ006-009>011-018-025>026-201700-
   North Central Minnesota

CITY           SKY/WX    TMP DP  RH WIND       PRES   REMARKS
BAUDETTE       PTSUNNY   54  47  77 VRB7      29.76R
FLAG ISLAND    CLOUDY    52  46  82 W14       29.75R
INTL FALLS     CLOUDY    53  51  93 W6        29.74R FOG
WASKISH        SUNNY     57  48  72 W6        29.78R
BIG FORK       SUNNY     59  46  63 W6        29.77F
LONGVILLE      PTSUNNY   61  54  77 W7        29.79S
GRAND RAPIDS   MOSUNNY   59  46  63 NW18G24   29.77S
CRANE LAKE     CLOUDY    52  52 100 SW5       29.75R FOG
ORR            CLOUDY    54  46  76 W7        29.73S
COOK           CLOUDY    54  48  82 W10       29.75S
WALKER         CLOUDY    59  52  76 NW14      29.80R
$$
MNZ012-019>021-037-201700-
   Northeast Minnesota

CITY           SKY/WX    TMP DP  RH WIND       PRES   REMARKS
DULUTH         CLOUDY    59  52  77 NW15      29.73R
ELY            CLOUDY    54  52  94 W3        29.72R
HIBBING        PTSUNNY   60  48  64 NW15G22   29.74S
EVELETH        CLOUDY    57  52  82 NW9       29.75S
DULUTH HARBOR  CLOUDY    63  55  77 W10G16    29.74R
TWO HARBORS    PTSUNNY   61  52  72 W10G18    29.69R
SILVER BAY     SUNNY     63  57  82 NW12G22   29.67R
GRAND MARAIS     N/A     63  56  78 VRB6      29.62R
G MARAIS ARPRT PTSUNNY   61  54  77 W16G22    29.65R
$$
MNZ029>031-032-039>041-046>048-054>057-064-201700-
   West Central Minnesota

CITY           SKY/WX    TMP DP  RH WIND       PRES   REMARKS
FERGUS FALLS   SUNNY     63  54  72 W7        29.84F
WHEATON        SUNNY     66  54  63 W6        29.87S
MORRIS         SUNNY     66  57  72 W7        29.85F
ALEXANDRIA     MOSUNNY   62  55  77 NW9       29.87R
ELBOW LAKE     FAIR      63  56  79 W6        29.85F
WADENA         CLOUDY    61  55  82 W7        29.83S
GLENWOOD       SUNNY     63  57  82 W9        29.87R
APPLETON       SUNNY     70  57  64 W8        29.86F
BENSON         SUNNY     66  57  72 NW10      29.87R
ORTONVILLE     SUNNY     68  55  64 W5        29.87S
MADISON        SUNNY     72  61  68 W6        29.87F
WILLMAR        FAIR      64  57  77 NW8       29.88S
$$
MNZ033>034-036-042>043-049>051-058-059-201700-
   Central Minnesota

CITY           SKY/WX    TMP DP  RH WIND       PRES   REMARKS
ST CLOUD       SUNNY     69  56  62 NW12      29.82R
SAUK CENTRE    FAIR      63  56  78 W7        29.85R
PAYNESVILLE    SUNNY     62  56  80 SW9       29.85S
AITKIN         PTSUNNY   66  55  68 W8        29.78S
PINE RIVER     CLOUDY    61  54  77 NW9       29.84S
BRAINERD       CLOUDY    61  53  75 NW10      29.82S
STAPLES        CLOUDY    59  54  82 W9        29.83S
LONG PRAIRIE   PTSUNNY   63  55  77 W7        29.84S
LITTLE FALLS   MOSUNNY   63  54  72 W13       29.83R
LITCHFIELD     SUNNY     66  61  82 W10       29.85S
BUFFALO        SUNNY     68  57  67 W12       29.83R
MAPLE LAKE     SUNNY     67  60  75 NW8       29.84R
$$
MNZ037-044-045-052-053-201700-
   East Central Minnesota

CITY           SKY/WX    TMP DP  RH WIND       PRES   REMARKS
PRINCETON      MOSUNNY   66  57  72 W9G17     29.81R
MORA           MOSUNNY   63  54  72 NW14G20   29.81R
CAMBRIDGE      SUNNY     70  55  60 W12G17    29.78R
RUSH CITY      PTSUNNY   67  57  70 W6        29.79R
MOOSE LAKE     CLOUDY    59  52  77 NW10      29.76R
HINCKLEY       CLOUDY    64  55  72 W7        29.78R
CLOQUET        CLOUDY    59  52  77 NW10      29.75S
MCGREGOR       PTSUNNY   61  52  72 NW9       29.78S
$$
MNZ071>073-080-081-089-090-097-098-201700-
   Southwest Minnesota

CITY           SKY/WX    TMP DP  RH WIND       PRES   REMARKS
MONTEVIDEO     SUNNY     70  61  73 NW7       29.88S
GRANITE FALLS  SUNNY     68  59  72 W10       29.89S
CANBY          SUNNY     70  60  68 W8        29.89S
MARSHALL       SUNNY     70  55  60 NW7       29.88S
REDWOOD FALLS  SUNNY     70  58  65 NW10      29.87R
OLIVIA         SUNNY     66  59  77 W10       29.86S
PIPESTONE      SUNNY     70  57  64 W7        29.92R
WINDOM         SUNNY     72  57  60 NW10      29.89S
WORTHINGTON    SUNNY     72  59  64 W8        29.91S
JACKSON        SUNNY     72  59  64 NW10      29.89S
TRACY          SUNNY     72  59  63 NW7       29.89S
SLAYTON        SUNNY     71  56  60 CALM      29.91F
$$
MNZ065>067-074>077-082>085-091>093-201700-
   South Central Minnesota

CITY           SKY/WX    TMP DP  RH WIND       PRES   REMARKS
MANKATO        SUNNY     70  55  60 NW15      29.83F
NEW ULM        SUNNY     70  61  73 NW13      29.85S
ST JAMES       SUNNY     73  57  56 NW10G16   29.87R
FAIRMONT       SUNNY     72  57  60 W14       29.86F
GLENCOE        SUNNY     67  57  70 W10       29.83S
FARIBAULT      MOSUNNY   72  55  56 W10       29.83S
OWATONNA       MOSUNNY   70  57  64 W10       29.83S
WASECA         SUNNY     68  55  64 W12       29.85S
ALBERT LEA     PTSUNNY   70  63  78 W8        29.83F
$$
MNZ078>079-086>088-094>096-201700-
   Southeast Minnesota

CITY           SKY/WX    TMP DP  RH WIND       PRES   REMARKS
ROCHESTER      CLOUDY    69  64  84 W10       29.84R
RED WING       MOSUNNY   72  59  64 W12G17    29.78S
STANTON        MOSUNNY   70  59  68 W12G17    29.80S
DODGE CENTER   PTSUNNY   70  63  78 W13       29.83R
WINONA         CLOUDY    70  63  78 W5        29.79R
AUSTIN         PTSUNNY   66  63  88 W10       29.84F
PRESTON        CLOUDY    65  66 100 W14G20    29.84R
$$
ABBREVIATIONS USED IN REMARKS
   TC - TEMPERATURES IN CELSIUS
  WCI - WIND CHILL INDEX
   HX - HEAT INDEX
  VSB - VISIBILITY
$$


USA.gov is the U.S. government's official web portal to all federal, state and local government web resources and services.